Regional Weather Roundup
Issued by NWS

Home | Current Version | Previous Version | Text Only | Print | Product List | Glossary Off
Versions: 1 2 3 4 5 6 7 8 9 10 11 12 13 14 15 16 17 18 19 20 21 22 23 24 25 26 27 28 29 30 31 32 33 34 35 36 37 38 39 40 41 42 43 44 45 46 47 48 49 50

000
ASUS45 KBOU 281007
RWRCO

WEATHER ROUNDUP FOR COLORADO
NATIONAL WEATHER SERVICE DENVER/BOULDER CO
400 AM MDT SAT MAR 28 2015

NOTE: "FAIR" INDICATES FEW OR NO CLOUDS BELOW 12000 FEET WITH NO
SIGNIFICANT WEATHER AND/OR OBSTRUCTIONS TO VISIBILITY.

COZ001>005-013-030-031-281100-
...NORTHWEST COLORADO...

CITY           SKY/WX    TMP DP  RH WIND       PRES   REMARKS
CRAIG          CLEAR     30  26  85 CALM      30.21F
HAYDEN         CLEAR     37  27  65 E8        30.21F
MEEKER         CLEAR     36  27  69 CALM      30.23F
MOUNT WERNER   NOT AVBL
STEAMBOAT SPGS CLEAR     35  29  80 CALM      30.23F
WALDEN         CLEAR     30  27  86 SE8       30.23F WCI  23
$$

COZ006>008-011-281100-
...WEST CENTRAL VALLEYS...

CITY           SKY/WX    TMP DP  RH WIND       PRES   REMARKS
GRAND JUNCTION CLEAR     46  25  43 SE13      30.16F
MONTROSE       CLEAR     41  25  53 SE7       30.24S
EAGLE          PTCLDY    34  27  75 CALM      30.28F
RIFLE          CLEAR     35  26  69 CALM      30.22S
DELTA          CLEAR     42  27  53 NE10      30.21F
NUCLA          CLEAR     41  23  48 SE10      30.27F
$$

COZ017>023-064>068-281100-
...SOUTHWEST COLORADO...

CITY           SKY/WX    TMP DP  RH WIND       PRES   REMARKS
DURANGO        CLEAR     39  23  52 S3        30.25F
CORTEZ         CLEAR     32  21  64 E8        30.24F WCI  25
PAGOSA SPRINGS CLEAR     34  22  61 CALM      30.30S
TELLURIDE      PTCLDY    36  23  59 SE7       30.38F
WOLF CREEK PAS CLEAR     32  12  43 N8        30.49S WCI  25
$$

COZ009-010-012-014-032>034-037-058>063-281100-
...CENTRAL COLORADO...

CITY           SKY/WX    TMP DP  RH WIND       PRES   REMARKS
ASPEN          MOCLDY    33  24  69 SW7       30.28F WCI  27
BUENA VISTA    CLEAR     32  24  72 CALM      30.29S
COPPER MTN     MOCLDY    34  21  60 W10G16    30.43S WCI  26
BERTHOUD PASS  FAIR      27  19  74 NW26G36   30.41S WCI  11
COTTONWOOD PAS CLEAR     41  18  38 W10       30.35S
GUNNISON       PTCLDY    27  19  74 CALM      30.35S
KREMMLING      CLEAR     30  27  86 CALM      30.29S
LEADVILLE      PTCLDY    29  18  63 NE9       30.33F WCI  20
SALIDA         CLEAR     39  25  56 NW7       30.35F
SUNLIGHT       CLEAR     36  23  60 CALM      30.42F
WILKERSON PASS PTCLDY    32  19  59 NW8G17    30.39F WCI  25
$$

COZ069>075-281100-
...SAN LUIS VALLEY/SANGRE DE CRISTO MOUNTAINS...

CITY           SKY/WX    TMP DP  RH WIND       PRES   REMARKS
ALAMOSA        PTCLDY    40  19  43 NW10      30.27F
LA VETA PASS   PTCLDY    37  18  44 SW6       30.35S
SAGUACHE       CLEAR     36  21  55 NW13      30.29S
$$

COZ035-036-038>040-281100-
...NORTHERN COLORADO FRONT RANGE...

CITY           SKY/WX    TMP DP  RH WIND       PRES   REMARKS
DENVER INTL AP CLEAR     48  30  49 SW13      30.07F
DMNS CITY PARK   N/A     50  26  39 S6G14     30.08S
AURORA         CLEAR     47  28  48 SW10      30.09F
FRONT RANGE AP CLEAR     52  32  46 SW12      30.08F
ERIE MUNI ARPT CLEAR     45  30  56 CALM      30.05F
BOULDER MUN AP CLEAR     50  28  43 SW6       30.06F
CENTENNIAL     CLEAR     49  27  42 SW12      30.10F
BROOMFIELD     CLEAR     52  28  40 W13       30.08F
FORT COLLINS   CLEAR     45  27  49 CALM      30.07S
LONGMONT       CLEAR     45  31  59 W5        30.07S
$$

COZ041-046-047-076>085-087-088-281100-
...PIKES PEAK/PALMER DIVIDE AND SOUTHERN FOOTHILLS...

CITY           SKY/WX    TMP DP  RH WIND       PRES   REMARKS
COLO. SPRINGS  CLEAR     45  25  45 N9        30.14F
A. F. ACADEMY  CLEAR     45  23  42 VRB6      30.14F
ELLICOTT       CLEAR    N/A N/A N/A CALM      30.12F
FALCON         CLEAR     46  22  38 NW9       30.17F
FORT CARSON    CLEAR     42  27  55 W6        30.11F
LIMON          CLEAR     34  29  82 N5        30.08F WCI  30
MONUMENT HILL  CLEAR     37  27  65 W10       30.16F
TRINIDAD       CLEAR     44  29  55 SW17      30.14F
$$

COZ042>045-048>051-090-091-281100-
...NORTHEAST COLORADO...

CITY           SKY/WX    TMP DP  RH WIND       PRES   REMARKS
GREELEY ARPT   CLEAR     36  21  55 CALM      30.04S
AKRON          CLEAR     44  31  60 W14       30.03S
BURLINGTON     CLEAR     42  33  70 W12       30.01F
WRAY           CLEAR     39  32  76 W5        30.00R
STERLING       CLEAR     34  30  86 SW6       30.01S WCI  29
HOLYOKE        CLEAR     41  32  70 W9        29.99F
FORT MORGAN    CLEAR     42  28  57 W9        30.04S
$$

COZ086-089-092>099-281100-
...SOUTHEAST COLORADO...

CITY           SKY/WX    TMP DP  RH WIND       PRES   REMARKS
PUEBLO         CLEAR     42  31  64 W8        30.08F
LA JUNTA       CLEAR     47  34  60 W17       30.04F
LAMAR          CLEAR     43  34  70 SW8       30.01F
SPRINGFIELD      N/A     47  30  51 W9        30.05S
$$



USA.gov is the U.S. government's official web portal to all federal, state and local government web resources and services.